Overview Statistics Trail Chart Weather Telemetry Raw packets
 

This is the latest recevied weather packets stored in our database for station/object K8RRT. If no packets are shown the sender has not sent any weather packets the latest 10 day(s).

<< 58 59 60 61 62 63 64 >>
Time Temp. Humidity Pressure Rain* Wind** Luminosity Snow
1788221174 27.78° C 90% 1013.6 hPa 0 mm - 0 W/m² -
1788220870 27.78° C 90% 1013.6 hPa 0 mm - 0 W/m² -
1788220563 27.78° C 90% 1013.8 hPa 0 mm - 0 W/m² -
1788220259 27.78° C 89% 1013.8 hPa 0 mm - 2 W/m² -
1788219952 27.78° C 88% 1013.6 hPa 0 mm - 3 W/m² -
1788219663 27.78° C 87% 1013.7 hPa 0 mm - 6 W/m² -
1788219343 28.33° C 87% 1013.6 hPa 0 mm - 8 W/m² -
1788219039 28.89° C 84% 1013.8 hPa 0 mm - 11 W/m² -
1788218734 28.89° C 84% 1013.6 hPa 0 mm - 16 W/m² -
1788218430 28.89° C 83% 1013.8 hPa 0 mm - 24 W/m² -
1788218126 28.89° C 84% 1014 hPa 0 mm - 29 W/m² -
1788217821 28.89° C 83% 1013.9 hPa 0 mm - 32 W/m² -
1788217517 28.89° C 84% 1014 hPa 0 mm - 41 W/m² -
1788217211 29.44° C 84% 1013.9 hPa 0 mm - 42 W/m² -
1788216907 29.44° C 82% 1013.8 hPa 0 mm - 39 W/m² -
1788216607 30° C 83% 1014 hPa 0 mm - 38 W/m² -
1788216301 30.56° C 82% 1013.8 hPa 0 mm - 45 W/m² -
1788215996 30.56° C 79% 1014 hPa 0 mm - 49 W/m² -
1788215692 30.56° C 78% 1014.1 hPa 0 mm - 57 W/m² -
1788215388 30.56° C 77% 1014.1 hPa 0 mm - 75 W/m² -
1788215084 31.11° C 76% 1014.1 hPa 0 mm - 90 W/m² -
1788214778 31.67° C 74% 1013.9 hPa 0 mm - 123 W/m² -
1788214474 31.67° C 74% 1014 hPa 0 mm - 120 W/m² -
1788214169 31.67° C 72% 1014 hPa 0 mm - 147 W/m² -
1788213865 32.22° C 72% 1014.1 hPa 0 mm - 234 W/m² -

* Rain latest hour (hover to see other rain measurements)
** Current wind speed in m/s (hover to see current wind gust speed)